#timestamp,LO_Frequency,Hit,StdDev 
1674129615.0,286046996.5,N
1674129615.9,286046996.5,N
1674129635.8,286046998.3,N
1674129655.6,286047001.2,N
1674129675.5,286047002.7,N
1674129695.3,286047001.4,N
1674129715.1,286047003.4,N
1674129735.9,286047003.0,N
1674129755.7,286047004.2,N
1674129775.6,286047004.1,N
1674129795.4,286047004.4,N
1674129815.2,286047003.6,N
1674129835.1,286047001.4,N
1674129836.0,286047001.4,N
1674129855.8,286047003.9,N
1674129875.6,286047003.1,N
1674129895.5,286047000.2,N
1674129915.3,286047004.2,N
1674129935.2,286047000.6,N
1674129955.9,286046998.7,N
1674129975.7,286046997.8,N
1674129995.6,286046996.5,N
1674130015.4,286047000.8,N
1674130035.2,286047000.0,N
1674130055.1,286047001.1,N
1674130056.0,286047001.1,N
1674130075.8,286047000.9,N
1674130095.7,286046998.3,N
1674130115.5,286046996.8,N
1674130135.3,286046999.2,N
1674130155.2,286047000.2,N
1674130175.0,286047001.4,N
1674130175.9,286047001.4,N
1674130195.7,286047001.7,N
1674130215.6,286047004.0,N
1674130235.4,286047003.6,N
1674130255.3,286047006.0,N
1674130275.1,286047005.5,N
1674130295.8,286047004.8,N
1674130315.7,286047005.3,N
1674130335.5,286047004.2,N
1674130355.4,286047004.2,N
1674130375.2,286047003.4,N
1674130395.0,286047003.0,N
1674130395.9,286047003.0,N
1674130415.8,286047004.1,N
1674130435.6,286047003.0,N
1674130455.4,286047005.7,N
1674130475.3,286047004.3,N
1674130495.1,286047003.0,N
1674130515.9,286047003.6,N
1674130535.7,286047003.2,N
1674130555.5,286047002.2,N
1674130575.4,286046999.9,N
1674130595.2,286047001.6,N
1674130615.0,286047004.2,N
1674130616.0,286047004.2,N
1674130635.8,286046999.7,N
1674130655.6,286047002.2,N
1674130675.5,286047002.3,N
1674130695.3,286047003.5,N
1674130715.2,286047004.2,N
1674130735.9,286047005.9,Y
1674130755.7,286046998.8,P
1674130775.6,286046999.1,N
1674130795.4,286047000.6,N
1674130815.2,286046996.8,N
1674130835.1,286046995.4,N
1674130836.0,286046995.4,N
1674130855.8,286046996.3,N
1674130875.7,286046991.8,Y
1674130895.5,286046996.2,P
1674130915.3,286046998.0,N
1674130935.2,286046999.6,N
1674130955.0,286046998.9,N
1674130956.0,286046998.9,N
1674130975.8,286046996.8,Y
1674130995.7,286047002.8,P
1674131015.5,286047003.2,N
1674131035.3,286046999.7,N
1674131055.2,286047002.2,N
1674131075.9,286047000.0,N
1674131095.7,286047003.7,N
1674131115.6,286047000.3,N
1674131135.4,286046998.8,N
1674131155.2,286046999.9,N
1674131175.1,286047001.7,N
1674131176.0,286047001.7,N
1674131195.8,286047005.0,N
1674131215.7,286047007.0,Y
1674131235.5,286047007.5,P
1674131255.3,286047004.5,N
1674131275.2,286047005.1,N
1674131295.0,286047007.2,Y
1674131295.9,286047007.2,P
1674131315.8,286046999.4,N
1674131335.6,286046999.0,N
1674131355.4,286047002.4,N
1674131375.3,286047000.1,N
1674131395.1,286046998.6,N
1674131415.8,286047000.9,N
1674131435.7,286046998.7,N
1674131455.5,286046995.0,N
1674131475.4,286046995.5,N
1674131495.2,286046997.0,N
1674131515.0,286046999.2,N
1674131515.9,286046999.2,N
1674131535.8,286046999.0,N
1674131555.6,286046999.3,N
1674131575.4,286046999.0,N
1674131595.3,286046997.3,N
1674131615.1,286046995.4,N
1674131635.9,286046997.9,N
1674131655.7,286046997.4,N
1674131675.6,286046997.4,N
1674131695.5,286046995.9,N
1674131715.3,286046993.5,N
1674131735.1,286046995.9,N
1674131755.9,286046996.0,N
1674131775.7,286046995.4,N
1674131795.5,286046995.6,N
1674131815.4,286046996.1,N
1674131835.2,286046993.8,N
1674131855.1,286046995.4,N
1674131856.0,286046995.4,N
1674131875.8,286046997.9,N
1674131895.6,286046999.2,N
1674131915.5,286047001.1,N
1674131935.3,286046997.5,N
1674131955.1,286046997.6,N
1674131975.9,286046996.5,N
1674131995.7,286046999.2,N
1674132015.6,286046998.8,N
1674132035.4,286046998.2,N
1674132055.2,286046999.2,N
1674132075.1,286047001.0,N
1674132076.0,286047001.0,N
1674132095.8,286046996.9,N
1674132115.7,286046996.6,N
1674132135.5,286046997.4,N
1674132155.3,286046993.5,Y
1674132175.2,286046998.8,P
1674132195.0,286046999.2,N
1674132195.9,286046999.2,N
1674132215.8,286046997.0,Y
1674132235.6,286046998.6,P
1674132255.4,286047000.2,P
1674132275.3,286047002.8,P
1674132295.1,286046999.9,N
1674132315.9,286047003.9,N
1674132335.7,286047002.5,N
1674132355.5,286047000.9,N
1674132375.4,286046999.2,N
1674132395.2,286046999.5,N
1674132415.0,286047001.0,N
1674132415.9,286047001.0,N
1674132435.8,286047001.4,N
1674132455.6,286047005.2,Y
1674132475.5,286047005.2,P
1674132495.3,286047003.0,N
1674132515.1,286047002.2,N
1674132535.9,286047002.8,N
1674132555.7,286047001.9,N
1674132575.5,286047004.3,Y
1674132595.4,286047002.5,P
1674132615.2,286047001.0,P
1674132635.1,286047002.3,P
1674132636.0,286047002.3,Y
1674132655.8,286046999.0,P
1674132675.6,286046999.0,N
1674132695.5,286047000.4,N
1674132715.3,286046998.8,N
1674132735.1,286046996.7,N
1674132755.9,286046997.1,N
1674132775.7,286047000.4,N
1674132795.6,286046999.1,N
1674132815.4,286046995.1,Y
1674132835.2,286046993.4,P
1674132855.1,286046992.8,N
1674132856.0,286046992.8,N
1674132875.8,286046993.4,N
1674132895.7,286046996.4,N
1674132915.5,286046994.9,N
1674132935.3,286046997.1,N
1674132955.2,286046997.9,N
1674132975.0,286046993.3,N
1674132975.9,286046993.3,Y
1674132995.7,286046999.8,P
1674133015.6,286047004.4,N
1674133035.4,286047003.4,N
1674133055.3,286047001.8,N
1674133075.1,286047002.2,N
1674133076.0,286047002.2,N
1674133095.8,286047000.1,N
1674133115.7,286047001.9,N
1674133135.5,286047000.2,N
1674133155.3,286046999.9,N
1674133175.2,286047002.8,N
1674133195.0,286046999.9,N
1674133195.9,286046999.9,N
